TimeCEST,TemperatureF,Dew PointF,Humidity,Sea Level PressureIn,VisibilityMPH,Wind Direction,Wind SpeedMPH,Gust SpeedMPH,PrecipitationIn,Events,Conditions,WindDirDegrees,DateUTC
12:00 AM,50.0,42.8,76,30.24,-9999.0,West,6.9,-,N/A,,Clear,260,2013-09-01 22:00:00
12:30 AM,50.0,42.8,76,30.24,-9999.0,WSW,6.9,-,N/A,,Clear,240,2013-09-01 22:30:00
1:00 AM,50.0,42.8,76,30.24,-9999.0,SW,6.9,-,N/A,,Clear,230,2013-09-01 23:00:00
1:30 AM,50.0,42.8,76,30.24,-9999.0,SW,8.1,-,N/A,,Clear,230,2013-09-01 23:30:00
2:00 AM,50,43,70,30.25,25,SW,11.2,,,,Mostly Cloudy,230,2013-09-02 00:00:00
2:00 AM,50.0,42.8,76,30.24,-9999.0,WSW,10.4,-,N/A,,Clear,240,2013-09-02 00:00:00
2:30 AM,48.2,42.8,82,30.21,-9999.0,SW,8.1,-,N/A,,Clear,230,2013-09-02 00:30:00
3:00 AM,48.2,42.8,82,30.21,-9999.0,SSW,9.2,-,N/A,,Clear,210,2013-09-02 01:00:00
3:30 AM,50.0,42.8,76,30.21,-9999.0,SW,9.2,-,N/A,,Clear,230,2013-09-02 01:30:00
4:00 AM,50.0,42.8,76,30.21,-9999.0,SW,10.4,-,N/A,,Clear,230,2013-09-02 02:00:00
4:30 AM,48.2,42.8,82,30.21,-9999.0,SW,11.5,-,N/A,,Clear,230,2013-09-02 02:30:00
5:00 AM,48.2,42.8,82,30.18,-9999.0,SW,9.2,-,N/A,,Clear,220,2013-09-02 03:00:00
5:30 AM,48.2,44.6,87,30.18,-9999.0,SW,10.4,-,N/A,,Clear,220,2013-09-02 03:30:00
6:00 AM,50.0,44.6,82,30.18,-9999.0,SW,9.2,-,N/A,,Clear,220,2013-09-02 04:00:00
6:30 AM,50.0,44.6,82,30.18,-9999.0,SSW,10.4,-,N/A,,Clear,210,2013-09-02 04:30:00
7:00 AM,50.0,44.6,82,30.18,-9999.0,SW,11.5,-,N/A,,Clear,220,2013-09-02 05:00:00
7:30 AM,50.0,44.6,82,30.18,-9999.0,SW,12.7,-,N/A,,Clear,230,2013-09-02 05:30:00
8:00 AM,51,45,73,30.19,25,SW,13.4,,,,Mostly Cloudy,230,2013-09-02 06:00:00
8:00 AM,51.8,44.6,76,30.15,-9999.0,SW,12.7,-,N/A,,Clear,220,2013-09-02 06:00:00
8:30 AM,53.6,44.6,72,30.18,-9999.0,SW,13.8,-,N/A,,Clear,230,2013-09-02 06:30:00
9:00 AM,55.4,46.4,72,30.18,-9999.0,WSW,17.3,-,N/A,,Clear,250,2013-09-02 07:00:00
9:30 AM,55.4,46.4,72,30.18,-9999.0,WSW,13.8,-,N/A,,Clear,250,2013-09-02 07:30:00
10:00 AM,57.2,46.4,67,30.18,6.2,West,16.1,-,N/A,,Partly Cloudy,260,2013-09-02 08:00:00
10:30 AM,59.0,46.4,63,30.18,6.2,WSW,17.3,-,N/A,,Partly Cloudy,240,2013-09-02 08:30:00
11:00 AM,59.0,46.4,63,30.18,6.2,West,18.4,-,N/A,,Scattered Clouds,260,2013-09-02 09:00:00
11:30 AM,59.0,46.4,63,30.15,6.2,WSW,17.3,-,N/A,,Scattered Clouds,250,2013-09-02 09:30:00
12:00 PM,60.8,46.4,59,30.15,6.2,WSW,17.3,-,N/A,,Scattered Clouds,240,2013-09-02 10:00:00
12:30 PM,60.8,46.4,59,30.15,6.2,WSW,18.4,-,N/A,,Mostly Cloudy,250,2013-09-02 10:30:00
1:00 PM,62.6,48.2,59,30.15,6.2,WSW,21.9,-,N/A,,Scattered Clouds,240,2013-09-02 11:00:00
1:30 PM,62.6,46.4,55,30.15,6.2,West,20.7,-,N/A,,Scattered Clouds,260,2013-09-02 11:30:00
2:00 PM,62,46,44,30.13,25,West,20.1,,,,Partly Cloudy,260,2013-09-02 12:00:00
2:00 PM,62.6,46.4,55,30.15,6.2,West,24.2,-,N/A,,Scattered Clouds,260,2013-09-02 12:00:00
2:30 PM,60.8,46.4,59,30.12,6.2,West,19.6,-,N/A,,Mostly Cloudy,260,2013-09-02 12:30:00
3:00 PM,60.8,46.4,59,30.12,6.2,West,16.1,-,N/A,,Scattered Clouds,260,2013-09-02 13:00:00
3:30 PM,60.8,46.4,59,30.15,6.2,West,15.0,-,N/A,,Mostly Cloudy,270,2013-09-02 13:30:00
4:00 PM,59.0,46.4,63,30.15,6.2,West,17.3,-,N/A,,Mostly Cloudy,270,2013-09-02 14:00:00
4:18 PM,57.2,48.2,72,30.15,6.2,West,20.7,-,N/A,Rain,Light Rain,280,2013-09-02 14:18:00
4:30 PM,57.2,48.2,72,30.12,6.2,West,16.1,-,N/A,,Overcast,260,2013-09-02 14:30:00
5:00 PM,57.2,50.0,77,30.12,6.2,SW,10.4,-,N/A,,Mostly Cloudy,230,2013-09-02 15:00:00
5:30 PM,57.2,50.0,77,30.12,6.2,SW,9.2,-,N/A,,Scattered Clouds,230,2013-09-02 15:30:00
6:00 PM,59.0,48.2,67,30.12,6.2,WSW,15.0,-,N/A,Rain,Light Rain,250,2013-09-02 16:00:00
6:30 PM,59.0,48.2,67,30.15,6.2,West,18.4,-,N/A,Rain,Light Rain,270,2013-09-02 16:30:00
7:00 PM,55.4,51.8,88,30.15,6.2,WSW,11.5,-,N/A,Rain,Light Rain,240,2013-09-02 17:00:00
7:30 PM,55.4,51.8,88,30.15,6.2,WSW,12.7,-,N/A,,Mostly Cloudy,240,2013-09-02 17:30:00
8:00 PM,56,51,77,30.14,19,WSW,11.2,,,Rain,Light Rain,240,2013-09-02 18:00:00
8:00 PM,55.4,51.8,88,30.12,6.2,WSW,11.5,-,N/A,,Mostly Cloudy,240,2013-09-02 18:00:00
8:30 PM,57.2,51.8,82,30.15,6.2,WSW,11.5,-,N/A,,Mostly Cloudy,240,2013-09-02 18:30:00
9:00 PM,57.2,51.8,82,30.15,6.2,WSW,12.7,-,N/A,,Mostly Cloudy,240,2013-09-02 19:00:00
9:30 PM,57.2,51.8,82,30.15,6.2,WSW,15.0,-,N/A,,Overcast,250,2013-09-02 19:30:00
10:00 PM,57.2,51.8,82,30.15,6.2,WSW,13.8,-,N/A,,Overcast,250,2013-09-02 20:00:00
10:30 PM,57.2,51.8,82,30.15,6.2,WSW,12.7,-,N/A,,Overcast,250,2013-09-02 20:30:00
11:00 PM,59.0,51.8,77,30.12,6.2,WSW,13.8,-,N/A,,Mostly Cloudy,250,2013-09-02 21:00:00
11:30 PM,60.8,53.6,77,30.12,6.2,West,17.3,-,N/A,,Overcast,270,2013-09-02 21:30:00